Location: Pine Mountain Observatory
(43.7910°N, 120.9377°W)
Time: 18:45:37
(UTC-07:00)

Cosmos 1867 - Visible Passes

Search period start: 26 May 2015 00:00
Search period end: 05 June 2015 00:00
Orbit: 777 x 799 km, 65.0° (Epoch: 26 May)

Date Brightness Start Highest point End Pass type
(mag) Time Alt. Az. Time Alt. Az. Time Alt. Az.
26 May 6.6 00:54:52 10° NW 00:56:52 12° NNW 00:58:43 10° N visible
26 May 6.6 04:26:23 10° N 04:29:22 15° NNE 04:32:29 10° ENE visible
26 May 4.5 22:34:37 10° SW 22:39:54 51° NW 22:45:14 10° NNE visible
27 May 6.5 00:22:03 10° WNW 00:24:53 14° NNW 00:27:34 10° N visible
27 May 6.8 03:55:10 10° N 03:57:23 12° NNE 03:59:46 10° NE visible
27 May 4.0 22:02:49 10° SW 22:08:13 67° NW 22:13:40 10° NNE visible
27 May 6.5 23:49:27 10° WNW 23:52:55 16° NNW 23:56:17 10° N visible
28 May 7.0 03:24:13 10° N 03:25:23 11° NNE 03:26:42 10° NE visible
28 May 3.6 21:31:08 10° SSW 21:36:34 87° NW 21:42:04 10° NE visible
28 May 6.3 23:17:00 10° W 23:21:00 20° NW 23:24:55 10° N visible
29 May 6.0 04:34:19 10° NNW 04:38:57 27° NE 04:43:38 10° E visible
29 May 6.0 22:44:42 10° W 22:49:07 24° NW 22:53:30 10° NNE visible
30 May 6.3 04:02:53 10° NNW 04:07:06 22° NE 04:11:23 10° E visible
30 May 5.7 22:12:30 10° WSW 22:17:17 30° NW 22:22:03 10° NNE visible
31 May 6.6 03:31:29 10° N 03:35:12 18° NNE 03:39:01 10° ENE visible
31 May 5.3 21:40:27 10° WSW 21:45:29 37° NW 21:50:34 10° NNE visible
31 May 7.1 23:29:00 10° NW 23:30:46 11° NNW 23:32:24 10° N visible
01 Jun 6.8 03:00:08 10° N 03:03:16 15° NNE 03:06:31 10° ENE visible
01 Jun 4.3 04:42:39 10° NNW 04:48:05 60° NE 04:53:28 10° SE visible
01 Jun 4.8 21:08:29 10° SW 21:13:45 48° NW 21:19:03 10° NNE visible
01 Jun 6.9 22:56:07 10° NW 22:58:47 13° NNW 23:01:18 10° N visible
02 Jun 6.9 02:28:53 10° N 02:31:18 13° NNE 02:33:51 10° NE visible
02 Jun 4.8 04:11:07 10° NNW 04:16:22 46° NE 04:21:37 10° ESE visible
02 Jun 6.7 22:23:29 10° WNW 22:26:49 16° NNW 22:30:02 10° N visible
03 Jun 7.0 01:57:51 10° N 01:59:18 11° NNE 02:00:54 10° NE visible
03 Jun 5.3 03:39:35 10° NNW 03:44:37 36° NE 03:49:39 10° ESE visible
03 Jun 6.6 21:51:00 10° W 21:54:53 19° NW 21:58:41 10° N visible
04 Jun 5.7 03:08:07 10° NNW 03:12:49 29° NE 03:17:33 10° ESE visible
04 Jun 6.4 21:18:39 10° W 21:23:00 23° NW 21:27:17 10° NNE visible
